Weather History for KPHD - December, 2012

Change the Weather History Date:

Monday, December 3, 2012

  Actual Average Record
Temperature  
Mean Temperature 58 °F 37 °F  
Max Temperature 62 °F 45 °F 68 °F (1982)
Min Temperature 53 °F 28 °F -4 °F (1976)
Degree Days  
Heating Degree Days 7 28  
Month to date heating degree days 41 84  
Since 1 July heating degree days 1314 1242  
Cooling Degree Days 0 0  
Month to date cooling degree days 0 0  
Year to date cooling degree days 981 697  
Growing Degree Days 8 (Base 50)    
Moisture  
Dew Point 54 °F    
Average Humidity 89    
Maximum Humidity 100    
Minimum Humidity 78    
Precipitation  
Precipitation 0.00 in 0.10 in 1.78 in (1991)
Month to date precipitation 0.14 0.28  
Year to date precipitation 28.46 36.51  
Sea Level Pressure  
Sea Level Pressure 30.17 in    
Wind  
Wind Speed 3 mph (SSE)    
Max Wind Speed 9 mph    
Max Gust Speed 13 mph    
Visibility 4 miles    
Events Fog    
T = Trace of Precipitation, MM = Missing Value Source: NWS Daily Summary

Daily Weather History Graph

Daily Weather History Graph

Search for Another Location

Airport or City:

Trip Planner

Search our weather history database for the weather conditions in past years. The results will help you decide how hot, cold, wet, or windy it might be!

Date:

Astronomy

Dec. 03, 2012 Rise Set
Actual Time 7:32 AM EST 4:59 PM EST
Civil Twilight 7:01 AM EST 5:29 PM EST
Nautical Twilight 6:27 AM EST 6:03 PM EST
Astronomical Twilight 5:54 AM EST 6:36 PM EST
Moon 9:45 PM EST (12/3) 10:54 AM EST (12/3)
Length of Visible Light 10h 27m
Length of Day
9h 27m
Waning Gibbous, 78% of the Moon is Illuminated
Dec 3
Waning Gibbous
Dec 6
Last Quarter
Dec 13
New
Dec 20
First Quarter
Dec 28
Full

Hourly Weather History & Observations

Time (EST) Temp. Dew Point Humidity Pressure Visibility Wind Dir Wind Speed Gust Speed Precip Events Conditions
12:53 AM 55.9 °F 54.0 °F 93% 30.17 in 3.0 mi SW 3.5 mph - N/A   Overcast
1:01 AM 55.4 °F 53.6 °F 94% 30.16 in 2.5 mi Calm Calm - N/A   Overcast
1:50 AM 55.4 °F 53.6 °F 94% 30.16 in 3.0 mi Calm Calm - N/A   Overcast
1:53 AM 55.9 °F 54.0 °F 93% 30.17 in 3.0 mi Calm Calm - N/A   Overcast
2:48 AM 55.4 °F 53.6 °F 94% 30.17 in 4.0 mi Calm Calm - N/A   Overcast
2:53 AM 55.0 °F 53.1 °F 93% 30.18 in 3.0 mi Calm Calm - N/A   Overcast
3:10 AM 55.4 °F 53.6 °F 94% 30.17 in 2.5 mi Calm Calm - N/A   Overcast
3:18 AM 55.4 °F 53.6 °F 94% 30.17 in 4.0 mi Calm Calm - N/A   Overcast
3:53 AM 55.9 °F 54.0 °F 93% 30.17 in 3.0 mi Calm Calm - N/A   Overcast
4:06 AM 55.4 °F 53.6 °F 94% 30.17 in 2.5 mi Calm Calm - N/A   Overcast
4:20 AM 53.6 °F 53.6 °F 100% 30.16 in 1.8 mi Calm Calm - N/A   Overcast
4:30 AM 53.6 °F 53.6 °F 100% 30.16 in 0.8 mi Calm Calm - N/A   Overcast
4:47 AM 53.6 °F 53.6 °F 100% 30.16 in 1.5 mi East 3.5 mph - N/A   Overcast
4:53 AM 54.0 °F 53.1 °F 97% 30.17 in 1.5 mi Calm Calm - N/A   Overcast
5:15 AM 55.4 °F 53.6 °F 94% 30.17 in 2.5 mi Calm Calm - N/A   Overcast
5:37 AM 55.4 °F 53.6 °F 94% 30.18 in 1.8 mi Calm Calm - N/A   Overcast
5:43 AM 53.6 °F 53.6 °F 100% 30.18 in 0.8 mi Calm Calm - N/A   Overcast
5:53 AM 54.0 °F 52.0 °F 93% 30.19 in 0.5 mi Calm Calm - N/A Fog Fog
6:53 AM 54.0 °F 52.0 °F 93% 30.20 in 1.0 mi Calm Calm - N/A   Overcast
7:05 AM 53.6 °F 51.8 °F 94% 30.20 in 1.8 mi Calm Calm - N/A   Overcast
7:13 AM 53.6 °F 51.8 °F 94% 30.20 in 0.8 mi SE 3.5 mph - N/A   Overcast
7:26 AM 53.6 °F 51.8 °F 94% 30.21 in 1.2 mi Calm Calm - N/A   Overcast
7:49 AM 53.6 °F 53.6 °F 100% 30.20 in 1.5 mi SE 4.6 mph - N/A   Overcast
7:53 AM 54.0 °F 53.1 °F 97% 30.20 in 1.5 mi SE 5.8 mph - N/A   Overcast
8:01 AM 53.6 °F 53.6 °F 100% 30.21 in 0.8 mi ESE 3.5 mph - N/A   Overcast
8:53 AM 55.0 °F 54.0 °F 96% 30.21 in 0.2 mi Calm Calm - N/A Fog Fog
9:29 AM 55.4 °F 53.6 °F 94% 30.21 in 1.2 mi SE 4.6 mph - N/A   Overcast
9:42 AM 55.4 °F 53.6 °F 94% 30.21 in 0.8 mi SE 5.8 mph - N/A   Overcast
10:41 AM 57.2 °F 55.4 °F 94% 30.20 in 1.2 mi SSE 4.6 mph - N/A   Overcast
10:53 AM 57.0 °F 55.9 °F 96% 30.20 in 2.5 mi SE 4.6 mph - N/A   Overcast
11:01 AM 57.2 °F 55.4 °F 94% 30.19 in 3.0 mi SSE 3.5 mph - N/A   Overcast
11:53 AM 59.0 °F 55.9 °F 90% 30.17 in 6.0 mi South 4.6 mph - N/A   Overcast
12:26 PM 60.8 °F 55.4 °F 82% 30.16 in 8.0 mi South 4.6 mph - N/A   Overcast
12:53 PM 60.1 °F 55.9 °F 86% 30.15 in 10.0 mi South 3.5 mph - N/A   Overcast
2:53 PM 61.0 °F 55.9 °F 83% 30.13 in 10.0 mi SE 4.6 mph - N/A   Overcast
3:17 PM 60.8 °F 55.4 °F 82% 30.13 in 10.0 mi South 5.8 mph - N/A   Overcast
3:53 PM 62.1 °F 55.9 °F 80% 30.14 in 10.0 mi SSE 4.6 mph - N/A   Overcast
4:53 PM 61.0 °F 55.0 °F 81% 30.14 in 10.0 mi South 5.8 mph - N/A   Overcast
5:53 PM 60.1 °F 55.9 °F 86% 30.15 in 10.0 mi SSE 4.6 mph - N/A   Overcast
6:36 PM 57.2 °F 55.4 °F 94% 30.15 in 10.0 mi SE 3.5 mph - N/A   Overcast
6:53 PM 57.9 °F 55.0 °F 90% 30.15 in 10.0 mi ESE 4.6 mph - N/A   Mostly Cloudy
7:53 PM 57.0 °F 55.0 °F 93% 30.14 in 9.0 mi SE 4.6 mph - N/A   Partly Cloudy
8:53 PM 57.0 °F 54.0 °F 89% 30.14 in 7.0 mi SSE 4.6 mph - N/A   Scattered Clouds
9:53 PM 55.9 °F 53.1 °F 90% 30.13 in 6.0 mi SE 3.5 mph - N/A   Clear
10:53 PM 55.9 °F 53.1 °F 90% 30.13 in 10.0 mi SE 3.5 mph - N/A   Clear
11:53 PM 55.0 °F 51.1 °F 86% 30.13 in 10.0 mi SSE 3.5 mph - N/A   Clear